Vertical_Velocity
3 -6 -1 2 1 1 -6 4 0 -4 4 2 2 -2 0 1 -5 4 -1 -3 -8 7 0 -0 -8 -1 5 0 -0 3 3 -0 1 5 -3 -1 -4 -3 1 -2 -2 1 -1
4 5 -4 -1 1 3 1 -2 -2 6 -4 2 3 -3 -4 -0 1 3 7 -3 -4 -3 -4 9 3 2 2 2 -3 0 3 -0 2 -0 6 1 -5 -4 -4 4 -3 -2 1
2 -0 -0 -3 2 -1 3 -1 -1 -1 -4 -2 4 1 -1 -1 -0 -3 1 9 1 -5 -1 0 -0 2 -9 7 4 -2 -3 4 0 1 2 3 1 -5 -3 -1 2 -5 -2
1 -2 -2 2 -1 0 -1 2 -3 -3 3 -1 -1 1 -4 1 -1 0 -1 1 8 2 2 -3 -3 2 -4 0 3 2 3 -3 2 -2 4 -0 5 1 -7 -2 1 0 -3
1 2 0 -5 -3 2 -0 0 0 -1 -1 0 -3 -1 -2 -1 0 -1 2 -1 5 2 2 0 -3 2 -6 2 -1 4 3 1 -1 2 -2 3 1 3 2 -5 -1 3 -3
-2 -2 -3 1 0 1 -2 3 1 -5 3 -1 -0 0 0 1 -1 -2 4 1 -0 3 -0 1 0 -2 -0 -2 -2 -0 3 6 1 -1 0 1 2 2 4 -1 -5 -1 3
2 1 -2 -2 1 -2 2 2 2 -1 -3 -3 -4 -1 1 4 -1 -0 -2 2 2 1 2 0 -3 -3 2 -2 1 -0 1 4 5 2 -0 -0 2 2 2 4 -1 -3 0
-1 -2 0 1 -2 0 -2 -2 -2 -2 -3 -0 -1 -0 -4 -1 2 -2 -2 1 3 1 2 -3 3 -3 0 -2 -0 0 -0 0 1 4 -0 1 -0 2 1 3 3 -2 -3
0 1 0 -1 -1 -1 -1 1 1 1 -3 -2 -5 -4 -2 -4 3 -3 -4 4 -1 -1 4 2 0 5 -2 -2 1 -0 1 -1 2 1 3 -0 2 -1 2 0 2 4 -2
-0 -2 -1 0 -0 -1 0 0 -0 1 -0 -0 -0 -1 -3 -5 -3 -1 1 -4 -2 -1 -1 -3 -1 -1 -2 1 -3 0 1 -1 1 2 3 0 2 0 0 2 1 2 4
-1 -2 -2 -1 -1 0 -1 -1 -1 0 1 1 -2 -2 0 -1 -3 -6 3 -2 0 -1 -0 -4 -2 1 -0 0 -1 4 0 -2 -1 0 2 3 -0 4 -0 1 3 -0 2
-0 -1 -1 -1 -2 -1 -1 -1 -1 0 -0 1 -0 -0 -0 -2 0 -3 -5 1 -5 -0 -4 0 -2 1 2 1 0 4 0 -1 -2 1 -0 3 2 2 5 -2 -0 3 -1
-2 0 -1 -1 0 -1 -1 -1 0 1 2 1 0 -1 -0 -0 -1 -5 -5 1 -8 3 -7 -4 2 1 1 1 1 1 2 -1 -4 0 2 -0 1 2 3 4 -1 -0 0
-2 -2 -1 -2 -1 -0 -2 -1 1 -2 1 2 0 -1 0 0 -2 -2 -5 -7 -4 -12 3 7 4 -1 1 2 5 4 -0 0 -1 -1 0 1 0 1 1 4 1 -1 1
-1 -2 -1 -1 -1 -1 -1 -1 -0 -2 0 1 1 -0 -1 1 -2 -1 -3 -2 -8 -10 -7 10 -5 10 -1 -5 -5 1 3 1 1 2 -1 1 -2 0 3 1 2 1 0
0 -0 -1 1 -1 -0 -2 -1 0 -2 -0 -3 0 0 -3 2 -1 -0 0 -3 -6 -9 -36 9 8 4 10 -1 -0 -2 -3 -1 -1 -1 -1 -2 5 -3 3 0 3 1 -1
1 0 0 1 0 -1 -3 -0 1 -0 0 -2 -3 -1 2 -4 3 -0 -2 -0 1 -2 -25 27 -7 3 6 -1 1 0 -2 -6 -3 -1 -0 -1 0 1 -0 3 1 3 0
-1 0 -2 -0 -1 0 -3 0 -0 -0 -3 2 -1 -3 3 1 -4 0 -3 -2 -5 -0 -14 -18 4 1 -9 3 4 -8 -1 -5 -3 -1 3 -0 0 0 -1 4 -0 3 3
-2 -3 -1 -1 -1 -1 -0 -3 -1 1 -1 -0 2 -2 0 -2 0 -2 -2 -2 -1 -3 -5 -23 4 0 -1 -3 -1 -2 1 8 -4 1 -2 3 -5 0 2 -2 3 -3 1
-1 -2 -1 -1 -1 0 0 -1 -3 -1 -0 -0 -1 0 -1 1 0 -1 -6 -3 -4 -7 -7 -20 -17 -6 -5 19 -13 -0 -8 -7 2 -0 -7 3 7 7 -1 -3 -3 3 -0
-2 -1 -1 -2 0 0 -2 -3 -2 -1 -0 -0 -1 -1 -0 1 -0 1 -6 6 0 -5 -11 -11 -23 -9 -7 -7 -7 24 -18 16 -4 2 -1 -10 5 4 -6 2 -6 -1 -1
-2 -1 -3 -1 -0 -3 -3 -1 -2 -2 -2 -1 1 -1 -1 1 3 -4 -5 -3 -5 -9 2 -8 -14 -22 -3 -17 1 -1 -2 -11 -36 19 -1 -20 -8 1 2 -1 3 -2 4
-0 -1 -2 -2 0 -2 -3 -1 -2 -3 -2 -1 -1 -2 1 2 -2 -4 0 -4 4 0 -18 9 -7 -7 -15 26 13 -11 -7 -1 -13 25 8 -6 1 -4 9 -2 2 -0 -0
-1 -0 -2 -3 -0 -3 -2 -1 -2 -2 -2 -1 -2 -0 -3 1 4 -4 -10 -6 -7 -11 8 1 -17 -9 -0 3 -5 5 8 2 -5 -3 -1 -26 12 -24 10 2 0 5 -4
-1 -2 -2 -2 -0 -2 -2 -2 -4 -3 -1 -1 -1 -1 -4 -2 6 -0 -12 -11 -15 -11 1 -2 2 -3 6 -3 12 8 -21 -5 -16 -15 5 -6 4 6 -9 -4 -4 -0 1
-1 -1 -0 -2 -2 -0 -0 -3 -4 -4 -0 -1 4 -1 -2 -3 0 3 -12 -9 -22 20 -1 3 -4 -3 7 -7 10 -4 16 -18 -8 -10 3 -17 8 15 -11 -13 -7 -5 -5
Height
3133 3135 3138 3141 3142 3145 3148 3150 3152 3153 3154 3155 3155 3157 3159 3162 3163 3163 3164 3164 3164 3163 3163 3161 3163 3162 3163 3164 3166 3167 3166 3166 3164 3165 3165 3164 3163 3163 3163 3164 3163 3163 3164
3127 3130 3133 3136 3138 3140 3141 3144 3146 3148 3149 3151 3152 3152 3154 3158 3160 3160 3162 3162 3163 3164 3163 3161 3160 3162 3163 3162 3164 3164 3167 3166 3166 3164 3165 3166 3165 3163 3164 3165 3165 3163 3164
3122 3124 3127 3130 3133 3134 3136 3138 3140 3143 3144 3146 3147 3148 3150 3152 3155 3157 3159 3159 3160 3161 3162 3162 3160 3160 3161 3161 3161 3163 3163 3166 3165 3164 3163 3165 3166 3165 3164 3164 3165 3164 3164
3116 3118 3121 3123 3126 3129 3131 3132 3134 3137 3139 3141 3143 3144 3146 3148 3150 3151 3153 3155 3157 3158 3159 3159 3160 3160 3160 3161 3159 3160 3162 3161 3164 3165 3163 3163 3165 3166 3164 3164 3165 3165 3164
3109 3112 3114 3117 3120 3122 3125 3127 3129 3131 3133 3134 3137 3139 3140 3143 3144 3145 3147 3150 3152 3154 3156 3157 3157 3157 3157 3159 3158 3157 3158 3159 3159 3162 3164 3163 3162 3164 3166 3164 3164 3165 3165
3102 3105 3107 3111 3113 3115 3118 3120 3122 3125 3125 3128 3130 3132 3134 3137 3139 3141 3142 3143 3146 3148 3151 3153 3154 3154 3154 3155 3156 3155 3155 3156 3157 3158 3161 3163 3162 3161 3164 3165 3163 3164 3165
3095 3097 3101 3104 3106 3109 3111 3114 3115 3117 3119 3121 3124 3126 3127 3129 3131 3134 3135 3137 3138 3141 3144 3147 3149 3150 3151 3152 3153 3153 3153 3153 3153 3154 3156 3159 3162 3161 3160 3163 3163 3163 3163
3087 3090 3093 3096 3098 3101 3103 3106 3108 3110 3112 3115 3117 3119 3121 3124 3122 3126 3129 3130 3132 3133 3134 3139 3142 3144 3146 3147 3149 3149 3150 3149 3150 3151 3152 3154 3157 3160 3158 3159 3162 3162 3162
3080 3082 3085 3088 3091 3093 3095 3097 3099 3102 3104 3107 3109 3112 3113 3115 3117 3118 3120 3122 3125 3126 3128 3129 3133 3136 3139 3141 3144 3145 3146 3147 3146 3147 3148 3149 3151 3154 3157 3156 3157 3160 3160
3072 3074 3077 3080 3082 3085 3088 3089 3091 3094 3096 3098 3101 3103 3105 3108 3108 3109 3112 3113 3116 3118 3120 3122 3124 3126 3129 3133 3136 3139 3140 3142 3143 3143 3144 3145 3146 3148 3152 3154 3152 3155 3157
3063 3066 3069 3072 3074 3077 3079 3081 3083 3085 3087 3090 3091 3093 3095 3097 3099 3100 3102 3104 3106 3108 3110 3113 3115 3117 3120 3124 3127 3130 3134 3136 3137 3138 3138 3140 3142 3143 3145 3149 3150 3150 3152
3055 3058 3060 3063 3066 3068 3070 3072 3075 3076 3078 3080 3082 3083 3085 3087 3088 3089 3091 3095 3096 3098 3099 3102 3104 3108 3111 3113 3116 3121 3125 3129 3130 3131 3132 3133 3135 3138 3138 3142 3145 3146 3147
3046 3049 3051 3054 3056 3058 3061 3063 3065 3066 3068 3070 3072 3073 3075 3075 3077 3078 3079 3081 3084 3089 3090 3092 3093 3096 3099 3103 3106 3110 3115 3119 3122 3123 3124 3127 3127 3130 3133 3133 3138 3141 3142
3037 3039 3041 3044 3046 3048 3051 3053 3055 3056 3058 3060 3061 3062 3063 3065 3065 3066 3067 3068 3070 3073 3079 3084 3086 3084 3085 3089 3093 3098 3102 3107 3111 3114 3115 3118 3119 3121 3125 3126 3129 3134 3136
3029 3030 3032 3034 3036 3038 3040 3043 3045 3046 3048 3049 3050 3051 3052 3053 3054 3055 3056 3056 3055 3058 3064 3071 3073 3077 3076 3075 3077 3083 3090 3095 3099 3104 3106 3108 3111 3112 3116 3119 3119 3124 3128
3021 3023 3024 3026 3027 3029 3031 3032 3034 3035 3037 3037 3038 3039 3040 3041 3041 3042 3043 3044 3044 3044 3045 3056 3059 3062 3065 3067 3065 3067 3073 3081 3085 3090 3094 3098 3100 3104 3106 3111 3112 3114 3118
3013 3015 3016 3017 3018 3019 3020 3022 3023 3024 3025 3026 3026 3026 3028 3028 3029 3030 3030 3031 3033 3033 3031 3039 3040 3044 3049 3053 3056 3054 3057 3063 3072 3077 3081 3085 3089 3094 3097 3101 3104 3105 3108
3003 3004 3006 3007 3008 3009 3010 3011 3011 3012 3013 3013 3014 3014 3015 3016 3016 3016 3017 3018 3018 3018 3017 3020 3023 3027 3030 3036 3040 3042 3043 3044 3053 3063 3068 3071 3077 3081 3086 3089 3093 3096 3098
2994 2994 2996 2997 2998 2999 2999 2999 2999 3000 3000 3001 3001 3002 3003 3003 3005 3006 3005 3005 3005 3004 3004 3004 3004 3007 3011 3016 3020 3025 3028 3030 3033 3042 3052 3058 3062 3069 3073 3078 3081 3085 3089
2985 2985 2985 2987 2987 2988 2988 2988 2987 2987 2987 2987 2988 2990 2991 2992 2993 2993 2992 2991 2990 2989 2987 2987 2987 2986 2989 2995 2998 3005 3008 3014 3016 3024 3032 3040 3048 3054 3060 3065 3069 3073 3077
2975 2975 2976 2976 2976 2976 2976 2975 2974 2974 2974 2974 2974 2976 2978 2979 2978 2977 2976 2975 2974 2971 2967 2965 2966 2964 2966 2970 2974 2980 2988 2995 2999 3006 3015 3022 3031 3038 3044 3050 3055 3059 3065
2966 2966 2966 2966 2966 2965 2964 2962 2962 2961 2960 2960 2961 2963 2963 2963 2962 2960 2958 2956 2955 2953 2950 2945 2945 2942 2943 2949 2952 2955 2963 2971 2979 2991 2997 3003 3011 3020 3027 3035 3041 3047 3052
2958 2957 2956 2955 2955 2954 2952 2951 2950 2948 2946 2946 2947 2947 2947 2947 2945 2941 2940 2938 2933 2926 2922 2917 2912 2916 2917 2924 2930 2932 2939 2948 2958 2971 2982 2984 2994 3000 3011 3019 3028 3035 3041
2950 2949 2947 2945 2945 2943 2941 2939 2938 2935 2933 2933 2933 2934 2932 2931 2930 2925 2918 2911 2905 2898 2891 2885 2878 2880 2883 2895 2901 2908 2916 2925 2935 2943 2958 2963 2978 2981 2994 3003 3013 3022 3029
2941 2941 2938 2936 2935 2934 2930 2929 2926 2923 2921 2920 2921 2919 2918 2915 2911 2905 2897 2887 2879 2867 2859 2852 2846 2850 2855 2864 2873 2882 2888 2900 2910 2920 2938 2947 2963 2970 2976 2986 2998 3009 3015
2934 2933 2930 2927 2924 2924 2921 2919 2915 2911 2910 2908 2908 2906 2904 2900 2896 2887 2877 2866 2848 2843 2834 2827 2822 2824 2832 2839 2847 2855 2866 2875 2888 2897 2918 2932 2948 2955 2959 2970 2982 2992 2999